Tiempo cada hora Abay

Hoy, 29 Octubre, Jueves

Tiempo Temperatura Precipitaciones Viento Presión Humedad
00:00 -2°C° 0 mm 0 mps 728 mmHg 73%
01:00 -3°C° 0 mm 0 mps 728 mmHg 78%
02:00 -3°C° 0 mm 0 mps 728 mmHg 84%
03:00 -4°C° 0 mm 0 mps 728 mmHg 85%
04:00 -4°C° 0 mm 0 mps 728 mmHg 86%
05:00 -4°C° 0 mm 0 mps 728 mmHg 85%
06:00 -3°C° 0 mm 0 mps 729 mmHg 80%
07:00 -2°C° 0 mm 0 mps 730 mmHg 75%
08:00 -1°C° 0 mm 0 mps 730 mmHg 70%
09:00 +2°C° 0 mm 1 mps 730 mmHg 61%
10:00 +3°C° 0 mm 2 mps 730 mmHg 52%
11:00 +4°C° 0 mm 2 mps 730 mmHg 45%
12:00 +6°C° 0 mm 2 mps 730 mmHg 41%
13:00 +7°C° 0 mm 2 mps 730 mmHg 37%
14:00 +8°C° 0 mm 3 mps 730 mmHg 33%
15:00 +7°C° 0 mm 3 mps 730 mmHg 35%
16:00 +5°C° 0 mm 3 mps 730 mmHg 38%
17:00 +4°C° 0 mm 2 mps 730 mmHg 43%
18:00 +3°C° 0 mm 2 mps 730 mmHg 48%
19:00 +2°C° 0 mm 2 mps 730 mmHg 52%
20:00 +1°C° 0 mm 2 mps 730 mmHg 57%
21:00 +1°C° 0 mm 2 mps 729 mmHg 59%
22:00 -1°C° 0 mm 2 mps 729 mmHg 62%
23:00 -1°C° 0 mm 2 mps 729 mmHg 64%

Mañana, 30 Octubre, Viernes

Tiempo Temperatura Precipitaciones Viento Presión Humedad
00:00 -2°C° 0 mm 2 mps 728 mmHg 65%
01:00 -2°C° 0 mm 2 mps 728 mmHg 66%
02:00 -2°C° 0 mm 2 mps 727 mmHg 67%
03:00 0°C° 0 mm 1 mps 727 mmHg 69%
04:00 -1°C° 0 mm 1 mps 727 mmHg 71%
05:00 -1°C° 0 mm 1 mps 726 mmHg 73%
06:00 0°C° 0 mm 1 mps 726 mmHg 69%
07:00 0°C° 0 mm 1 mps 726 mmHg 65%
08:00 +1°C° 0 mm 1 mps 727 mmHg 61%
09:00 +4°C° 0 mm 1 mps 726 mmHg 52%
10:00 +5°C° 0 mm 2 mps 726 mmHg 43%
11:00 +8°C° 0 mm 2 mps 726 mmHg 34%
12:00 +10°C° 0 mm 3 mps 725 mmHg 30%
13:00 +12°C° 0 mm 4 mps 725 mmHg 26%
14:00 +13°C° 0 mm 4 mps 725 mmHg 22%
15:00 +12°C° 0 mm 4 mps 725 mmHg 25%
16:00 +10°C° 0 mm 3 mps 724 mmHg 27%
17:00 +9°C° 0 mm 2 mps 724 mmHg 30%
18:00 +7°C° 0 mm 2 mps 724 mmHg 34%
19:00 +6°C° 0 mm 2 mps 724 mmHg 38%
20:00 +6°C° 0 mm 1 mps 724 mmHg 42%
21:00 +5°C° 0 mm 1 mps 724 mmHg 46%
22:00 +4°C° 0 mm 1 mps 723 mmHg 49%
23:00 +3°C° 0 mm 1 mps 723 mmHg 52%

Pasado mañana, 31 Octubre, Sábado

Tiempo Temperatura Precipitaciones Viento Presión Humedad
00:00 +3°C° 0 mm 1 mps 723 mmHg 55%
01:00 +2°C° 0 mm 1 mps 722 mmHg 58%
02:00 +2°C° 0 mm 1 mps 722 mmHg 61%
03:00 +1°C° 0 mm 1 mps 722 mmHg 62%
04:00 +1°C° 0 mm 1 mps 722 mmHg 63%
05:00 -1°C° 0 mm 0 mps 722 mmHg 65%
06:00 +1°C° 0 mm 0 mps 722 mmHg 59%
07:00 +2°C° 0 mm 0 mps 722 mmHg 53%
08:00 +3°C° 0 mm 0 mps 722 mmHg 47%
09:00 +7°C° 0 mm 1 mps 722 mmHg 40%
10:00 +9°C° 0 mm 1 mps 722 mmHg 34%
11:00 +11°C° 0 mm 1 mps 722 mmHg 28%
12:00 +13°C° 0 mm 1 mps 722 mmHg 25%
13:00 +14°C° 0 mm 2 mps 722 mmHg 22%
14:00 +16°C° 0 mm 2 mps 722 mmHg 20%
15:00 +14°C° 0 mm 2 mps 722 mmHg 23%
16:00 +12°C° 0 mm 2 mps 721 mmHg 26%
17:00 +9°C° 0 mm 2 mps 721 mmHg 30%
18:00 +9°C° 0 mm 1 mps 721 mmHg 34%
19:00 +8°C° 0 mm 1 mps 721 mmHg 38%
20:00 +6°C° 0 mm 1 mps 721 mmHg 43%
21:00 +6°C° 0 mm 1 mps 721 mmHg 45%
22:00 +5°C° 0 mm 1 mps 720 mmHg 48%
23:00 +5°C° 0 mm 1 mps 720 mmHg 50%

1 Noviembre, Domingo

Tiempo Temperatura Precipitaciones Viento Presión Humedad
00:00 +3°C° 0 mm 0 mps 720 mmHg 52%
01:00 +3°C° 0 mm 0 mps 720 mmHg 54%
02:00 +3°C° 0 mm 0 mps 720 mmHg 56%
03:00 +2°C° 0 mm 0 mps 720 mmHg 56%
04:00 +2°C° 0 mm 0 mps 720 mmHg 56%
05:00 +2°C° 0 mm 0 mps 719 mmHg 56%
06:00 +3°C° 0 mm 0 mps 720 mmHg 49%
07:00 +4°C° 0 mm 0 mps 720 mmHg 42%
08:00 +6°C° 0 mm 0 mps 720 mmHg 34%
09:00 +10°C° 0 mm 1 mps 721 mmHg 29%
10:00 +13°C° 0 mm 1 mps 721 mmHg 23%
11:00 +16°C° 0 mm 1 mps 721 mmHg 17%
12:00 +18°C° 0 mm 1 mps 721 mmHg 15%
13:00 +19°C° 0 mm 1 mps 720 mmHg 14%
14:00 +19°C° 0 mm 2 mps 720 mmHg 12%
15:00 +17°C° 0 mm 2 mps 720 mmHg 17%
16:00 +14°C° 0 mm 2 mps 720 mmHg 21%
17:00 +12°C° 0 mm 2 mps 719 mmHg 26%
18:00 +11°C° 0 mm 1 mps 719 mmHg 30%
19:00 +9°C° 0 mm 1 mps 719 mmHg 33%
20:00 +8°C° 0 mm 1 mps 719 mmHg 36%
21:00 +8°C° 0 mm 1 mps 719 mmHg 34%
22:00 +8°C° 0 mm 1 mps 719 mmHg 31%
23:00 +9°C° 0 mm 1 mps 719 mmHg 28%

2 Noviembre, Lunes

Tiempo Temperatura Precipitaciones Viento Presión Humedad
00:00 +8°C° 0 mm 1 mps 719 mmHg 29%
01:00 +8°C° 0 mm 1 mps 719 mmHg 31%
02:00 +7°C° 0 mm 0 mps 719 mmHg 32%
03:00 +6°C° 0 mm 0 mps 719 mmHg 36%
04:00 +5°C° 0 mm 0 mps 718 mmHg 40%
05:00 +5°C° 0 mm 0 mps 718 mmHg 44%
06:00 +6°C° 0 mm 0 mps 719 mmHg 36%
07:00 +8°C° 0 mm 1 mps 719 mmHg 28%
08:00 +10°C° 0 mm 1 mps 720 mmHg 20%
09:00 +13°C° 0 mm 1 mps 720 mmHg 17%
10:00 +16°C° 0 mm 1 mps 720 mmHg 14%
11:00 +20°C° 0 mm 1 mps 721 mmHg 10%
12:00 +21°C° 0 mm 1 mps 721 mmHg 10%
13:00 +21°C° 0 mm 2 mps 721 mmHg 9%
14:00 +21°C° 0 mm 2 mps 721 mmHg 9%
15:00 +19°C° 0 mm 2 mps 720 mmHg 12%
16:00 +16°C° 0 mm 2 mps 720 mmHg 14%
17:00 +14°C° 0 mm 2 mps 720 mmHg 17%
18:00 +12°C° 0 mm 1 mps 720 mmHg 23%
19:00 +10°C° 0 mm 1 mps 720 mmHg 28%
20:00 +7°C° 0 mm 0 mps 720 mmHg 34%
21:00 +7°C° 0 mm 0 mps 720 mmHg 36%
22:00 +7°C° 0 mm 1 mps 720 mmHg 39%
23:00 +7°C° 0 mm 1 mps 720 mmHg 42%

3 Noviembre, Martes

Tiempo Temperatura Precipitaciones Viento Presión Humedad
00:00 +7°C° 0 mm 1 mps 720 mmHg 41%
01:00 +7°C° 0 mm 1 mps 720 mmHg 41%
02:00 +6°C° 0 mm 1 mps 720 mmHg 40%
03:00 +6°C° 0 mm 1 mps 720 mmHg 41%
04:00 +6°C° 0 mm 1 mps 720 mmHg 42%
05:00 +5°C° 0 mm 0 mps 720 mmHg 43%
06:00 +7°C° 0 mm 1 mps 721 mmHg 36%
07:00 +8°C° 0 mm 1 mps 721 mmHg 29%
08:00 +9°C° 0 mm 1 mps 721 mmHg 21%
09:00 +12°C° 0 mm 1 mps 722 mmHg 18%
10:00 +15°C° 0 mm 2 mps 722 mmHg 14%
11:00 +18°C° 0 mm 2 mps 722 mmHg 11%
12:00 +19°C° 0 mm 2 mps 722 mmHg 11%
13:00 +19°C° 0 mm 3 mps 722 mmHg 10%
14:00 +20°C° 0 mm 3 mps 722 mmHg 10%
15:00 +18°C° 0 mm 3 mps 722 mmHg 13%
16:00 +14°C° 0 mm 3 mps 722 mmHg 17%
17:00 +13°C° 0 mm 2 mps 721 mmHg 20%
18:00 +10°C° 0 mm 2 mps 722 mmHg 24%
19:00 +8°C° 0 mm 2 mps 722 mmHg 28%
20:00 +8°C° 0 mm 1 mps 722 mmHg 32%
21:00 +6°C° 0 mm 2 mps 722 mmHg 34%
22:00 +6°C° 0 mm 2 mps 723 mmHg 36%
23:00 +6°C° 0 mm 2 mps 723 mmHg 38%
Mostrar más

Necesitamos Su Consentimiento

Meteoprog y nuestros Proveedores de Servicios pueden almacenar y acceder a sus datos personales como cookies, identificadores de dispositivo u otras tecnologías similares de su dispositivo y procesar dichos datos para personalizar contenido y anuncios, además de ofrecer funciones de redes sociales y analizar el tráfico.

  • Almacenar y/o acceder a información en su dispositivo

    Se puede almacenar o acceder a cookies, identificadores de dispositivo u otra información de su dispositivo para los fines anteriormente indicados.

  • Anuncios y contenido personalizados, medición de anuncios y contenido, percepciones del público, y desarrollo de productos

    Los anuncios y el contenido pueden personalizarse en base a su perfil. Se pueden añadir más datos para personalizar mejor los anuncios y contenidos. Se puede medir el rendimiento de los anuncios y contenidos. Se puede obtener la percepción sobre el público que ha visto los anuncios y contenidos. Dichos datos pueden usarse para desarrollar o mejorar la experiencia del usuario, sistemas y software.

Al hacer clic en ‘Estoy De Acuerdo’ usted permitirá el uso de las cookies, identificadores de dispositivo, balizas web u otras tecnologías similares indicadas. Su configuración puede cambiarse desde el navegador de su dispositivo.

Para ciertos fines, los intereses legítimos pueden ser considerados por encima del consentimiento. Puede leer más sobre ello en nuestra Política de Privacidad y Cookies.